Date,TemperatureHighF,TemperatureAvgF,TemperatureLowF,DewpointHighF,DewpointAvgF,DewpointLowF,HumidityHigh,HumidityAvg,HumidityLow,PressureMaxIn,PressureMinIn,WindSpeedMaxMPH,WindSpeedAvgMPH,GustSpeedMaxMPH,PrecipitationSumIn
2013-11-1,44,40,37,40,38,36,95,91,82,29.98,29.59,0,0,0,0.01
2013-11-2,41,38,37,38,36,35,96,92,86,29.99,29.85,0,0,0,0.12
2013-11-3,39,39,39,36,36,36,91,91,91,29.85,29.85,0,0,0,0.00
2013-11-4,46,46,46,36,36,35,67,67,67,29.25,29.24,0,0,0,0.00
2013-11-7,34,34,34,25,25,25,69,69,69,30.14,30.14,0,0,0,0.00
2013-11-9,40,38,34,37,33,27,93,84,75,30.16,30.09,0,0,0,0.04
2013-11-10,38,36,35,36,34,30,94,92,74,30.09,29.71,0,0,0,1.04
2013-11-11,38,33,29,30,21,15,76,61,50,29.94,29.73,0,0,0,0.01
2013-11-12,34,30,24,16,10,7,56,45,33,30.05,29.92,0,0,0,0.00
2013-11-13,34,29,26,25,20,10,87,69,49,30.16,30.03,0,0,0,0.00
2013-11-14,45,36,26,34,28,13,92,76,31,30.15,29.79,0,0,0,0.00
2013-11-15,55,38,34,20,17,11,56,43,28,29.96,29.84,0,0,0,0.00
2013-11-16,34,31,24,14,9,3,44,39,33,30.10,29.85,0,0,0,0.00
2013-11-17,24,20,18,4,1,-2,46,42,38,30.11,30.07,0,0,0,0.00
2013-11-18,18,17,16,-2,-4,-6,42,39,36,30.10,30.05,0,0,0,0.00
2013-11-19,16,15,12,-4,-7,-8,45,37,32,30.07,29.98,0,0,0,0.00
2013-11-20,19,14,10,7,4,-2,79,64,47,29.99,29.85,0,0,0,0.00
2013-11-21,36,21,15,34,13,2,93,72,45,29.83,29.22,0,0,0,0.16
2013-11-22,44,34,27,41,27,17,95,73,59,29.46,29.08,0,0,0,0.48
2013-11-23,30,24,18,26,18,14,93,79,68,30.02,29.45,0,0,0,0.00
2013-11-24,36,33,29,34,31,27,95,94,90,30.06,29.99,0,0,0,0.22
2013-11-25,37,33,31,31,29,28,95,85,75,29.95,29.64,0,0,0,0.06
2013-11-26,33,33,32,30,30,30,95,88,86,29.83,29.67,0,0,0,0.08
2013-11-27,38,33,30,30,28,20,95,81,64,29.83,29.55,0,0,0,0.09
2013-11-28,30,24,17,20,9,-3,66,52,40,29.84,29.57,0,0,0,0.00
2013-11-29,18,16,16,-2,-3,-3,43,41,40,29.95,29.84,0,0,0,0.00
2013-11-30,20,16,14,1,-3,-3,52,42,41,30.23,29.95,0,0,0,0.00